Regional Weather Roundup
Issued by NWS

Home | Current Version | Previous Version | Graphics & Text | Print | Product List | Glossary On
Versions: 1 2 3 4 5 6 7 8 9 10 11 12 13 14 15 16 17 18 19 20 21 22 23 24 25 26 27 28 29 30 31 32 33 34 35 36 37 38 39 40 41 42 43 44 45 46 47 48 49 50
000
ASUS43 KFSD 061310
RWRSD

WEATHER ROUNDUP FOR SOUTH DAKOTA
NATIONAL WEATHER SERVICE SIOUX FALLS SD
800 AM CDT WED MAY 06 2015

NOTE: "FAIR" INDICATES FEW OR NO CLOUDS BELOW 12,000 FEET WITH NO
SIGNIFICANT WEATHER AND/OR OBSTRUCTIONS TO VISIBILITY.


SDZ001>005-009-010-012>017-061400-
NORTHWEST AND NORTH CENTRAL SOUTH DAKOTA

CITY           SKY/WX    TMP DP  RH WIND       PRES   REMARKS
BUFFALO          N/A     55  53  93 SE10      29.67S
FAITH            N/A     56  53  90 SE12      29.73F
MOBRIDGE       CLOUDY    60  58  92 SE14      29.75F FOG
$$

SDZ012>016-024>037-041>051-057-063-072>074-061400-
SOUTHWEST AND SOUTH CENTRAL SOUTH DAKOTA

CITY           SKY/WX    TMP DP  RH WIND       PRES   REMARKS
RAPID CTY ARPT LGT RAIN  53  53 100 SE9       29.72S FOG
PIERRE         LGT RAIN  59  57  93 SE12      29.75S FOG
CUSTER         LGT RAIN  47  46  97 E3        29.75S FOG
ELLSWORTH AFB  LGT RAIN  53  53 100 SE8       29.71S FOG
PHILIP         CLOUDY    57  56  96 E10       29.72S
PINE RIDGE     CLOUDY    55  52  89 NE3       29.71R
SPEARFISH      LGT RAIN  52  52 100 CALM      29.73S
WINNER         PTSUNNY   62  57  83 SE16G25   29.75F
$$

SDZ004>011-016>023-039-040-061400-
NORTHEAST SOUTH DAKOTA

CITY           SKY/WX    TMP DP  RH WIND       PRES   REMARKS
ABERDEEN       CLOUDY    61  58  90 SE12      29.84F FOG
WATERTOWN      CLOUDY    61  58  90 SE12G21   29.90F FOG
BROOKINGS      CLOUDY    61  61 100 SE17      29.92S
SISSETON         N/A     56  56 100 S15       29.91F
$$

SDZ017-020-022-023-036>040-048>070-061400-
SOUTHEAST SOUTH DAKOTA

CITY           SKY/WX    TMP DP  RH WIND       PRES   REMARKS
SIOUX FALLS    CLOUDY    63  59  87 SE13      29.90S
HURON          CLOUDY    63  59  87 SE16G23   29.83S
CHAMBERLAIN    CLOUDY    60  59  96 SE12G17   29.79S
MITCHELL       CLOUDY    63  59  87 SE16      29.84F
YANKTON        CLOUDY    63  57  82 E10       29.85F
$$

ABBREVIATIONS USED IN REMARKS
   TC - TEMPERATURE IN CELSIUS
  WCI - WIND CHILL INDEX
   HX - HEAT INDEX
  VSB - VISIBILITY




USA.gov is the U.S. government's official web portal to all federal, state and local government web resources and services.